Location: Schommer Observatory
(40.5200°N, 74.4500°W)
Time: 18:44:30
(UTC-04:00)

ISS - Visible Passes

Search period start: 28 June 2017 00:00
Search period end: 08 July 2017 00:00
Orbit: 401 x 408 km, 51.6° (Epoch: 29 June)

Date Brightness Start Highest point End Pass type
(mag) Time Alt. Az. Time Alt. Az. Time Alt. Az.
05 Jul -3.1 04:51:52 10° SSW 04:55:00 45° SE 04:58:09 10° ENE visible
06 Jul -2.1 04:01:28 18° S 04:02:51 23° SE 04:05:31 10° ENE visible
07 Jul -1.2 03:11:14 12° ESE 03:11:14 12° ESE 03:12:09 10° ESE visible
07 Jul -3.7 04:43:52 12° WSW 04:46:50 71° NW 04:50:06 10° NE visible
